Current weather by "City, St" or "zip code"  
 
Advertise Here

Current Conditions: Bellingham, Bellingham International Airport, WA

Fair


68.0 F

Last Updated on Jun 18 2021, 3:53 pm PDT
Humidity: 49%
Wind Speed: S 8.1 mph
Barometer 30.08 in
Dewpoint: 48.0 F
Visibility: 10.00 mi
Precip: --
Heat Index: NA
Wind Chill: NA
Current conditions at:

Bellingham, Bellingham International Airport, WA (KBLI)

Lat: 48.79911 Lon: 122.54064

Local Radar Image active severe weather and emergency alerts image image weather storm and storm spotter reports image weather observation monitoring service image
Local
Radar
Active
Alerts
Storm Reports Obs
Monitoring

Sign-up For Email & Text Message Weather Alert Notification Services


Advertise Here

Observation History for Bellingham, Bellingham International Airport, WA


Time Wind
(mph)
Vis
(mi)
Weather Precip (in) Temperature (F) Relative
Humidity
Wind
Chill
(F)
Heat
Index
(F)
Pressure
Air Dwpt altimeter
(in)
sea level
(mb)
Rmks
3:53 pm PDT S 8.1 10.00 Fair -- 68.0 48.0 49% NA NA 30.08 1019.1
1:53 pm PDT 5.8 10.00 Fair -- 68.0 46.0 45% NA NA 30.10 1019.8
12:53 pm PDT S 9.2 10.00 Fair -- 66.0 45.0 47% NA NA 30.11 1020.0
11:53 am PDT SW 8.1 10.00 Fair -- 64.0 43.0 46% NA NA 30.10 1020.0
10:53 am PDT S 10.4 G 20.7 10.00 Fair -- 62.0 44.1 52% 61 NA 30.11 1020.2
9:53 am PDT S 11.5 G 18.4 10.00 Fair -- 60.0 42.1 52% 58 NA 30.11 1020.3
8:53 am PDT S 8.1 10.00 Fair -- 59.0 39.0 48% 58 NA 30.12 1020.5
7:53 am PDT W 3.5 10.00 Fair -- 58.0 39.0 50% NA NA 30.11 1020.2
6:53 am PDT S 5.8 10.00 Fair -- 58.0 39.0 50% 57 NA 30.11 1020.1
5:53 am PDT S 6.9 10.00 Fair -- 54.0 35.1 49% 52 NA 30.08 1019.3
4:53 am PDT SW 3.5 10.00 Fair -- 52.0 34.0 50% NA NA 30.09 1019.4
2:53 am PDT S 6.9 10.00 Fair -- 55.0 36.0 49% 53 NA 30.08 1019.2
1:53 am PDT S 8.1 10.00 Fair -- 58.0 39.9 51% 56 NA 30.08 1019.1
12:53 am PDT S 4.6 10.00 Fair -- 53.0 37.9 57% 52 NA 30.09 1019.6
11:53 pm PDT N 0.0 10.00 Fair -- 56.0 39.0 53% NA NA 30.10 1019.8
10:53 pm PDT S 5.8 10.00 Fair -- 58.0 39.9 51% 57 NA 30.10 1019.8
9:53 pm PDT S 9.2 10.00 Fair -- 63.0 39.9 43% 62 NA 30.09 1019.6
8:53 pm PDT S 3.5 10.00 Fair -- 63.0 42.1 47% NA NA 30.08 1019.2
6:53 pm PDT S 5.8 10.00 Fair -- 72.0 48.0 43% NA NA 30.11 1020.0
5:53 pm PDT S 6.9 10.00 Fair -- 75.0 48.9 40% NA NA 30.12 1020.6
5:53 pm PDT S 6.9 10.00 Fair -- 75.0 48.9 40% NA NA 30.12 1020.6
4:53 pm PDT W 8.1 10.00 Fair -- 69.0 46.9 45% NA NA 30.28 1025.8
4:53 pm PDT N 0.0 10.00 Fair -- 76.0 39.0 26% NA NA 30.13 1021.0

Regional Weather Observation


Eastsound, Orcas Island Airport, WA (KORS)

Fair
68.0 F

Burlington/Mount Vernon, Skagit Regional Airport, WA (KBVS)

Fair
73.0 F

Friday Harbor Airport, WA (KFHR)

Fair
68.0 F

Whidbey Island Naval Air Station - Ault Field, WA (KNUW)

Mostly Cloudy
63.0 F

Arlington Municipal Airport, WA (KAWO)

Fair
66.0 F

Port Townsend Jefferson County International Airport, WA (K0S9)

Fair
63.0 F
Advertise Here

Advertise Here